User: anonymous   Login
Location: Unspecified
(0.0000°N, 0.0000°E)
Time: 23:48:43
(UTC+00:00)
Language:

Injun 5 (Explorer 40) - Orbit

View from above orbital plane
View from above orbital plane
View from above satellite
View from above satellite

Ground track
Ground track

The orbit data is extracted from the following two-line orbital elements,

1  3338U 68066B   17348.91154678 -.00000031 +00000-0 -43963-4 0  9992
2  3338 080.6619 300.3487 1132222 177.1947 183.6262 12.22830473198607
Epoch (UTC): 14 December 2017 21:52:37
Eccentricity: 0.1132222
inclination: 80.6619°
perigee height: 679 km
apogee height: 2481 km
right ascension of ascending node: 300.3487°
argument of perigee: 177.1947°
revolutions per day: 12.22830473
mean anomaly at epoch: 183.6262°
orbit number at epoch: 19860

The dashed part of the orbit path shows where the satellite is in the earth's shadow,  

DLR